Marble Point, Antarctica

3:36 AM GMT on February 11, 2016 (GMT +0000)
Williams Field | | Change Station
CLOSE
Current Station
Airport
Location: Williams Field,
Elevation: 79 ft
Nearby Weather Stations

Elev 79 ft 77.85 °S, 166.67 °E | Updated 41 minutes ago

Mostly Cloudy
Mostly Cloudy
14 °F
Feels Like -2 °F
N
16
Wind Variable Wind from East
Gusts 23 mph

Today
High -- | Low -- °F
--% Chance of Precip.
Yesterday
High -- | Low -- °F
Precip. -- in
Pressure 29.09 in
Visibility -9999.0 miles
Clouds Few 2500 ft
Mostly Cloudy 4000 ft
Mostly Cloudy 9000 ft
Windchill -2 °F
Dew Point 3 °F
Humidity 62%
Rainfall 0.00 in
Snow Depth Not available.
0:00 AM 0:00 AM
Waxing Crescent, 9% visible
METAR NZCM 110255Z COR 09014G20KT FEW025 BKN040 BKN090 M10/M16 A2907 RMK PK WND 09026/0000 SNB0020E35 SLP849 SN DSNT NW
Pressure 29.09 in
Visibility -9999.0 miles
Clouds Few 2500 ft
Mostly Cloudy 4000 ft
Mostly Cloudy 9000 ft
Windchill -2 °F
Dew Point 3 °F
Humidity 62%
Rainfall 0.00 in
Snow Depth Not available.
0:00 AM 0:00 AM
Waxing Crescent, 9% visible
METAR NZCM 110255Z COR 09014G20KT FEW025 BKN040 BKN090 M10/M16 A2907 RMK PK WND 09026/0000 SNB0020E35 SLP849 SN DSNT NW

10-Day Weather Forecast

No radar image for this location.
×

Almanac

Astronomy

Feb. 11, 2016 Rise Set
Actual Time
Civil Twilight
Nautical Twilight
Astronomical Twilight
Moon
Length of Visible Light
Length of Day
Tomorrow will be .
, % of the Moon is Illuminated

Today's Extremes

Country Highs Country Lows

Community

WunderPhotos

Upload Photos

1,891,994 photos uploaded!

WunderBlog® & News

Nearby

Air Quality

  Air Quality AQ Index Pollutant
Not available.

Snow Depth

Station Depth Elevation

Earthquake Activity

City Distance Mag. Time & Date
Minimum magnitude displayed is 2.5.

Coastal Water Temperatures

Place Temperature

Stations

Nearby Weather Stations

Station Location Temp. Windchill Dew Point Humidity Wind Precip. Elev Updated Type